Orbital Elements
Epoch 2018 Dec. 28.0 TT = JDT 2458480.5
T 2019 Jan. 10.88808 TT MPCW
q 2.6766324 (2000.0) P Q
n 0.08874581 Peri. 51.59665 +0.50895259 -0.86040869
a 4.9778002 Node 7.93575 +0.72009045 +0.40916571
e 0.4622861 Incl. 10.75802 +0.47163227 +0.30377673
P 11.11
From 250 observations 2007 Sept. 10-2019 Feb. 7, mean residual 0".6.
|